[[{"header":{"parameterUnit":"m.s-1","parameterCategory":1,"la1":30.2991,"la2":30.254,"lo1":-89.0895,"lo2":-89.0444,"dy":0.0017,"dx":0.0017,"nx":28,"ny":28,"refTime":"2024-06-18T21:00:00:Z","depth":0,"parameterNumber":2,"parameterNumberName":"U-component_of_WINDS"},"data":[0,0,0,0,0,0,0,0,0,0,0,0,0,0,0,0,0,0,0,0,0,0,0,0,0,0,0,0,0,0,0,0,0,0,0,0,0,0,0,0,0,0,0,0,0,0,0,0,0,0,0,0,0,0,0,0,0,0,-6.5711,-6.571,0,-6.5669,-6.5668,-6.5668,-6.5497,-6.5493,-6.5489,-6.5486,-6.5445,-6.5448,-6.5451,0,0,0,0,0,0,0,0,0,0,0,0,0,-6.5647,-6.5649,-6.5711,-6.571,-6.571,-6.5669,-6.5668,-6.5668,-6.5498,-6.5493,-6.5488,-6.5484,-6.5445,-6.5448,-6.5451,0,0,0,0,0,0,0,0,0,0,0,0,0,-6.5647,-6.565,-6.5711,-6.562,-6.5611,-6.5669,-6.5668,-6.5667,-6.5499,-6.5493,-6.5487,-6.5481,-6.5444,-6.5447,-6.5451,-6.5594,0,0,-6.5463,-6.5465,0,0,0,0,0,0,0,0,-6.5647,-6.565,-6.5634,-6.5626,-6.5617,-6.5582,-6.5631,-6.5643,-6.55,-6.5542,-6.5485,-6.5479,-6.5496,-6.5495,-6.55,-6.5592,-6.559,-6.5463,-6.5466,-6.5468,-6.5469,0,0,0,0,0,0,0,-6.5647,-6.565,-6.5694,-6.5634,-6.5624,-6.5582,-6.5576,-6.5632,-6.5553,-6.5538,-6.5525,-6.5522,-6.549,-6.5497,-6.5498,-6.559,-6.5463,-6.5467,-6.5469,-6.5471,-6.5796,-6.5802,0,0,0,0,0,0,-6.566,-6.5652,-6.5695,-6.5693,-6.5618,-6.5588,-6.5581,-6.5599,-6.5551,-6.5538,-6.5528,-6.5515,-6.5493,-6.5494,-6.5496,-6.5659,-6.5468,-6.5471,-6.5473,-6.579,-6.5797,-6.5804,0,0,0,0,0,0,-6.5659,-6.5665,-6.5697,-6.5669,-6.567,-6.5596,-6.5618,-6.5602,-6.5608,-6.5544,-6.5529,-6.5549,-6.5488,-6.5491,-6.557,-6.5655,-6.5473,-6.5476,-6.5782,-6.5792,-6.5801,-6.5988,0,0,0,0,0,0,-6.5658,-6.5666,-6.5719,-6.5671,-6.5672,-6.5772,-6.5623,-6.5605,-6.5615,-6.5598,-6.556,-6.5548,-6.5484,-6.5566,-6.5574,-6.5658,-6.548,-6.5774,-6.5787,-6.5798,-6.5974,-6.6002,-6.6027,0,0,0,0,0,-6.5656,-6.5774,-6.5722,-6.5729,-6.5736,-6.5777,-6.5778,-6.5701,-6.5623,-6.5675,-6.5634,-6.5549,-6.5645,-6.5575,-6.5584,-6.5669,-6.5769,-6.5783,-6.5797,-6.5962,-6.5997,-6.6026,0,0,0,0,0,0,-6.5834,-6.5766,-6.5708,-6.5813,-6.5803,-6.5748,-6.5812,-6.574,-6.5752,-6.5735,-6.564,-6.5634,-6.5727,-6.5706,-6.563,-6.5805,-6.5693,-6.5709,-6.5815,-6.5848,-6.5874,-6.5877,-6.5483,0,0,0,0,0,-6.5886,-6.5924,-6.5862,-6.5962,-6.5959,-6.5887,-6.5902,-6.5844,-6.5829,-6.5824,-6.5788,-6.5778,-6.5805,-6.5825,-6.5847,-6.597,-6.5959,-6.6033,-6.606,-6.6082,-6.6098,-6.6161,-6.6193,-6.5851,-6.5851,-6.585,0,0,-6.5992,-6.596,-6.599,-6.5996,-6.5981,-6.6023,-6.5884,-6.5935,-6.5966,-6.5832,-6.5904,-6.5879,-6.5861,-6.5963,-6.6006,-6.5948,-6.619,-6.61,-6.6119,-6.6121,-6.6179,-6.6211,-6.624,-6.586,-6.5859,-6.5857,0,0,-6.6208,-6.6188,-6.6267,-6.6255,-6.6233,-6.6184,-6.6204,-6.6161,-6.6138,-6.621,-6.611,-6.6146,-6.6196,-6.6187,-6.6189,-6.6403,-6.6325,-6.6413,-6.6552,-6.6615,-6.6642,-6.6665,-6.6741,-6.677,-6.6429,-6.6429,-6.6429,0,-6.6344,-6.6403,-6.6318,-6.6375,-6.6381,-6.6261,-6.6341,-6.6334,-6.6321,-6.6328,-6.6264,-6.6323,-6.6303,-6.6401,-6.6453,-6.6459,-6.6479,-6.6416,-6.6645,-6.6667,-6.6688,-6.6759,-6.6788,-6.644,-6.6438,-6.6437,-6.6436,0,-6.657,-6.6613,-6.668,-6.667,-6.6683,-6.6753,-6.6679,-6.6703,-6.6645,-6.6604,-6.6679,-6.665,-6.6664,-6.6683,-6.6627,-6.6774,-6.6739,-6.6662,-6.6546,-6.6733,-6.6798,-6.6825,-6.6455,-6.6451,-6.6448,-6.6445,0,0,-6.6896,-6.6838,-6.6864,-6.6857,-6.6825,-6.6857,-6.6921,-6.6933,-6.6956,-6.6952,-6.7003,-6.7049,-6.6977,-6.6979,-6.6921,-6.6977,-6.7148,-6.6892,-6.689,-6.694,-6.7308,-6.7366,-6.7399,-6.7097,-6.7101,-6.7105,-6.7309,0,-6.7101,-6.7205,-6.7131,-6.7249,-6.7287,-6.7174,-6.723,-6.7217,-6.7181,-6.7209,-6.7169,-6.7203,-6.7105,-6.7106,-6.7156,-6.7116,-6.722,-6.7101,-6.7144,-6.7147,-6.7151,-6.7433,-6.7495,-6.7689,-6.7335,-6.7339,-6.7342,0,-6.7353,-6.7359,-6.7481,-6.744,-6.7453,-6.7505,-6.751,-6.7539,-6.7522,-6.7492,-6.7496,-6.7423,-6.7484,-6.7372,-6.7455,-6.7376,-6.7389,-6.7373,-6.7378,-6.7379,-6.7255,-6.7441,-6.7749,-6.7778,-6.7382,-6.7378,-6.7376,0,-6.7578,-6.7616,-6.7693,-6.7692,-6.7647,-6.7686,-6.7669,-6.7646,-6.7659,-6.7664,-6.7672,-6.7686,-6.7693,-6.7706,-6.7639,-6.7564,-6.7731,-6.7614,-6.7708,-6.771,-6.7747,-6.7746,-6.8061,-6.7759,-6.7758,-6.7758,-6.7757,0,-6.7814,-6.7893,-6.7794,-6.7841,-6.7926,-6.7841,-6.7928,-6.7899,-6.788,-6.7921,-6.7825,-6.7866,-6.7776,-6.7808,-6.7756,-6.7833,-6.7837,-6.7815,-6.78,-6.7823,-6.7826,-6.783,-6.7815,-6.7765,-6.7764,-6.7762,-6.7761,0,-6.8079,-6.8016,-6.8092,-6.8043,-6.8033,-6.8098,-6.8056,-6.8099,-6.8056,-6.8109,-6.8117,-6.8051,-6.8084,-6.8019,-6.8043,-6.8008,-6.8116,-6.8081,-6.8122,-6.8111,-6.8209,-6.8201,-6.8537,-6.8577,-6.825,-6.8253,-6.8256,0,-6.8233,-6.829,-6.8248,-6.8267,-6.8256,-6.8289,-6.8301,-6.822,-6.8237,-6.8223,-6.8268,-6.8292,-6.8307,-6.8364,-6.8319,-6.8338,-6.8301,-6.8418,-6.8303,-6.8325,-6.8302,-6.83,-6.8305,-6.8442,-6.8446,-6.8449,-6.8452,0,-6.8513,-6.8479,-6.8499,-6.851,-6.8527,-6.8531,-6.8529,-6.8551,-6.8465,-6.8489,-6.8521,-6.8532,-6.8557,-6.8582,-6.859,-6.8574,-6.85,-6.8488,-6.8511,-6.8534,-6.8555,-6.8545,-6.8185,-6.8481,-6.8478,-6.8476,-6.8474,-6.8473,-6.8726,-6.8772,-6.8749,-6.8775,-6.8765,-6.8765,-6.8803,-6.8765,-6.8789,-6.8802,-6.8753,-6.8796,-6.8779,-6.8781,-6.8773,-6.8806,-6.8754,-6.8787,-6.8795,-6.8804,-6.882,-6.8551,-6.8807,-6.8806,-6.8806,-6.8805,-6.8804,0,-6.9001,-6.8981,-6.9006,-6.9005,-6.9026,-6.8953,-6.8947,-6.897,-6.9008,-6.8998,-6.9014,-6.9051,-6.9076,-6.9033,-6.9051,-6.9086,-6.9052,-6.9093,-6.9089,-6.9087,-6.8866,-6.8844,-6.912,-6.912,-6.912,-6.912,-6.912,-6.912,-6.9146,-6.922,-6.9184,-6.9252,-6.923,-6.927,-6.9273,-6.9274,-6.9264,-6.9309,-6.9329,-6.9301,-6.9278,-6.9293,-6.9313,-6.93,-6.9311,-6.9364,-6.9339,-6.9133,-6.9102,-6.9073,-6.9052,-6.9367,-6.9368,-6.9557,-6.9559,-6.956]},{"header":{"parameterUnit":"m.s-1","parameterCategory":1,"la1":30.2991,"la2":30.254,"lo1":-89.0895,"lo2":-89.0444,"dy":0.0017,"dx":0.0017,"nx":28,"ny":28,"refTime":"2024-06-18T21:00:00:Z","depth":0,"parameterNumber":3,"parameterNumberName":"V-component_of_WINDS"},"data":[0,0,0,0,0,0,0,0,0,0,0,0,0,0,0,0,0,0,0,0,0,0,0,0,0,0,0,0,0,0,0,0,0,0,0,0,0,0,0,0,0,0,0,0,0,0,0,0,0,0,0,0,0,0,0,0,0,0,0.992,0.992,0,0.9922,0.9922,0.9922,0.9975,0.9977,0.9978,0.9979,0.9976,0.9974,0.9973,0,0,0,0,0,0,0,0,0,0,0,0,0,0.9959,0.9958,0.992,0.992,0.992,0.9922,0.9922,0.9922,0.9975,0.9977,0.9978,0.998,0.9976,0.9975,0.9973,0,0,0,0,0,0,0,0,0,0,0,0,0,0.9949,0.9957,0.992,0.9947,0.995,0.9922,0.9922,0.9922,0.9975,0.9977,0.9979,0.9981,0.9977,0.9975,0.9973,0.9919,0,0,0.9966,0.9966,0,0,0,0,0,0,0,0,0.995,0.9948,0.9943,0.9945,0.9948,0.9951,0.9935,0.9921,0.9974,0.9965,0.9979,0.9982,0.9965,0.9964,0.996,0.9918,0.9918,0.9966,0.9965,0.9964,0.9963,0,0,0,0,0,0,0,0.995,0.9948,0.9921,0.9943,0.9946,0.9958,0.9959,0.9932,0.9953,0.9966,0.997,0.997,0.9967,0.9962,0.996,0.9918,0.9966,0.9964,0.9963,0.9962,0.9833,0.9831,0,0,0,0,0,0,0.9948,0.9948,0.9921,0.9921,0.9954,0.9955,0.9957,0.9948,0.9954,0.9957,0.9968,0.9972,0.9964,0.9963,0.996,0.9897,0.9964,0.9962,0.9961,0.9835,0.9833,0.983,0,0,0,0,0,0,0.9949,0.9945,0.9921,0.9936,0.9934,0.9953,0.9942,0.9947,0.9942,0.9955,0.9959,0.9959,0.9966,0.9963,0.9929,0.9898,0.9961,0.9959,0.9838,0.9834,0.9831,0.9771,0,0,0,0,0,0,0.9949,0.9945,0.9925,0.9935,0.9933,0.989,0.994,0.9945,0.9938,0.9944,0.9948,0.995,0.9967,0.9932,0.9927,0.9896,0.9958,0.9841,0.9836,0.9832,0.9775,0.9766,0.9757,0,0,0,0,0,0.9951,0.9906,0.9924,0.992,0.9909,0.9888,0.9887,0.9909,0.9936,0.9915,0.9925,0.995,0.9903,0.9928,0.9923,0.9891,0.9843,0.9837,0.9833,0.978,0.9768,0.9758,0,0,0,0,0,0,0.989,0.9908,0.9927,0.9886,0.9885,0.9897,0.9872,0.9895,0.9886,0.9891,0.9918,0.9918,0.9879,0.9882,0.991,0.984,0.9877,0.9871,0.9839,0.9827,0.9819,0.9818,0.9956,0,0,0,0,0,0.9872,0.9856,0.9872,0.9833,0.9833,0.9853,0.9845,0.9862,0.9862,0.9861,0.9868,0.9866,0.9851,0.984,0.9826,0.9777,0.9778,0.9753,0.9744,0.9737,0.973,0.9704,0.9693,0.9814,0.9814,0.9814,0,0,0.9834,0.9842,0.983,0.9822,0.9823,0.9805,0.9852,0.983,0.9816,0.9857,0.9826,0.9831,0.983,0.9789,0.977,0.9789,0.9698,0.973,0.9724,0.9722,0.9698,0.9687,0.9677,0.9811,0.9811,0.9812,0,0,0.9755,0.976,0.9729,0.973,0.9734,0.9748,0.974,0.9749,0.9755,0.9725,0.9756,0.9739,0.9712,0.9711,0.9706,0.963,0.9653,0.9625,0.9576,0.9551,0.9542,0.9533,0.9505,0.9495,0.9619,0.9619,0.9619,0,0.9706,0.9681,0.9709,0.9685,0.9681,0.9721,0.9689,0.9689,0.9686,0.9682,0.9704,0.9672,0.9675,0.9633,0.9615,0.961,0.9602,0.9623,0.9541,0.9533,0.9525,0.9499,0.9488,0.9615,0.9616,0.9616,0.9616,0,0.9621,0.9603,0.9577,0.9576,0.9569,0.9541,0.9564,0.9554,0.9572,0.9584,0.9552,0.9557,0.9546,0.9538,0.9555,0.9499,0.9511,0.9537,0.9575,0.951,0.9485,0.9475,0.961,0.9611,0.9612,0.9613,0,0,0.95,0.9518,0.9508,0.9509,0.9517,0.9502,0.9477,0.9468,0.9458,0.9456,0.9434,0.9412,0.9437,0.9432,0.9449,0.9428,0.9366,0.9456,0.9457,0.9438,0.9304,0.9283,0.9271,0.9383,0.9381,0.938,0.9304,0,0.9423,0.9381,0.9407,0.9361,0.9344,0.9384,0.9361,0.9363,0.9374,0.9361,0.9372,0.9356,0.939,0.9387,0.9368,0.9378,0.9339,0.9384,0.9361,0.936,0.9358,0.9258,0.9236,0.9164,0.9295,0.9293,0.9292,0,0.9326,0.9323,0.9275,0.9288,0.9282,0.9262,0.9256,0.9244,0.9247,0.9256,0.9252,0.9276,0.9251,0.9291,0.9256,0.9286,0.9278,0.9282,0.928,0.9277,0.932,0.9251,0.9142,0.913,0.9277,0.9278,0.9279,0,0.9242,0.9225,0.9195,0.9194,0.9209,0.9193,0.9198,0.9204,0.9197,0.9193,0.9189,0.918,0.9175,0.9168,0.9188,0.9216,0.915,0.9192,0.9156,0.9155,0.9138,0.9138,0.9024,0.9136,0.9137,0.9137,0.9137,0,0.9152,0.912,0.9157,0.9138,0.9105,0.9135,0.9101,0.911,0.9115,0.9098,0.9132,0.9115,0.9144,0.913,0.9146,0.9114,0.9112,0.9118,0.9122,0.9113,0.9112,0.9107,0.9112,0.9134,0.9135,0.9135,0.9136,0,0.905,0.9073,0.9043,0.906,0.9064,0.9039,0.9053,0.9035,0.905,0.9028,0.9024,0.9046,0.9031,0.9052,0.9039,0.905,0.9006,0.9019,0.9005,0.9008,0.8971,0.8973,0.8847,0.8832,0.8956,0.8954,0.8953,0,0.899,0.8967,0.8983,0.8975,0.8979,0.8965,0.896,0.899,0.8982,0.8986,0.8967,0.8956,0.8948,0.8922,0.8936,0.8926,0.8938,0.8895,0.8936,0.8929,0.8935,0.8936,0.8933,0.8885,0.8883,0.8882,0.8881,0,0.888,0.8894,0.8885,0.8881,0.8874,0.8872,0.8872,0.8863,0.8895,0.8885,0.8871,0.8865,0.8853,0.8841,0.8835,0.8839,0.8864,0.8869,0.886,0.885,0.8842,0.8845,0.898,0.8871,0.8872,0.8873,0.8873,0.8874,0.8796,0.8779,0.8788,0.8777,0.8782,0.8781,0.8766,0.878,0.877,0.8764,0.8782,0.8764,0.8769,0.8765,0.8766,0.8752,0.877,0.8757,0.8754,0.875,0.8743,0.8847,0.8751,0.8751,0.8752,0.8752,0.8752,0,0.8687,0.8696,0.8687,0.8687,0.8679,0.8708,0.871,0.8701,0.8685,0.8689,0.8681,0.8666,0.8655,0.8669,0.8661,0.8646,0.8658,0.8643,0.8643,0.8643,0.8728,0.8736,0.8634,0.8634,0.8634,0.8634,0.8634,0.8634,0.863,0.8601,0.8616,0.859,0.8599,0.8583,0.8582,0.8582,0.8585,0.8567,0.8559,0.8569,0.8577,0.857,0.8561,0.8565,0.856,0.854,0.8548,0.8626,0.8637,0.8648,0.8656,0.8539,0.8539,0.8465,0.8464,0.8464]}]]